[[{"header":{"parameterUnit":"m.s-1","parameterCategory":1,"la1":30.2992,"la2":30.254,"lo1":-89.0895,"lo2":-89.0443,"dy":0.0025,"dx":0.0025,"nx":19,"ny":19,"refTime":"2026-05-13T09:00:00:Z","depth":0,"parameterNumber":2,"parameterNumberName":"U-component_of_WINDS"},"data":[0,0,0,-3.486,-3.4867,-3.5225,-3.5227,-3.5659,-3.5663,0,0,0,0,0,0,0,0,0,0,0,-3.4737,-3.474,-3.486,-3.4868,-3.5225,-3.5227,-3.5658,-3.5663,0,0,0,0,0,0,0,0,0,0,0,-3.4736,-3.4739,-3.4742,-3.4869,-3.5225,-3.5227,-3.5658,-3.5397,0,0,0,0,0,0,0,0,0,0,-3.5054,-3.4924,-3.4738,-3.4742,-3.4871,-3.5225,-3.5227,-3.5385,-3.5413,-3.5486,0,-3.5544,0,-3.561,-3.569,-3.5691,0,0,0,-3.4881,-3.49,-3.5012,-3.4743,-3.4874,-3.5224,-3.5068,-3.5401,-3.5433,-3.5523,-3.5551,-3.5568,-3.5617,-3.5693,-3.5695,-3.6069,-3.607,0,0,-3.4861,-3.4793,-3.4989,-3.5032,-3.4973,-3.5056,-3.5079,-3.5421,-3.5447,-3.5553,-3.5578,-3.5625,-3.5695,-3.5698,-3.6068,-3.6069,0,0,0,-3.4796,-3.4778,-3.4883,-3.5013,-3.5079,-3.5066,-3.5092,-3.5432,-3.5471,-3.5583,-3.563,-3.5698,-3.5703,-3.6067,-3.6069,-3.6059,0,0,0,-3.4785,-3.474,-3.4873,-3.4835,-3.5073,-3.526,-3.5095,-3.5448,-3.5489,-3.5627,-3.5698,-3.5706,-3.6066,-3.6068,-3.6057,-3.6066,0,0,0,-3.472,-3.4733,-3.4779,-3.483,-3.4982,-3.5256,-3.5316,-3.5458,-3.5516,-3.5692,-3.5708,-3.6065,-3.6067,-3.6055,-3.6063,-3.6146,0,0,0,-3.4631,-3.4764,-3.4777,-3.4945,-3.4978,-3.5247,-3.5314,-3.5518,-3.5667,-3.57,-3.6066,-3.6068,-3.6054,-3.6061,-3.6143,-3.6202,-3.6221,0,0,-3.4761,-3.4777,-3.4882,-3.4904,-3.5153,-3.5198,-3.5447,-3.5648,-3.5728,-3.5951,-3.5961,-3.6058,-3.6062,-3.6145,-3.6348,-3.6362,0,0,0,-3.49,-3.4973,-3.5054,-3.5193,-3.5351,-3.5488,-3.5658,-3.5734,-3.5927,-3.5828,-3.6112,-3.6117,-3.6168,-3.62,-3.6212,-3.6261,-3.608,-3.608,-3.608,-3.4984,-3.5079,-3.5259,-3.5398,-3.5533,-3.5709,-3.5828,-3.596,-3.6016,-3.6082,-3.6148,-3.626,-3.6294,-3.6304,-3.6354,-3.6188,-3.6188,-3.6188,-3.6188,-3.5183,-3.5303,-3.5378,-3.5578,-3.5679,-3.585,-3.6026,-3.6061,-3.6236,-3.6217,-3.6267,-3.6237,-3.6316,-3.6365,-3.6188,-3.6188,-3.6188,-3.6188,-3.6188,-3.5248,-3.5323,-3.5413,-3.5626,-3.5781,-3.5919,-3.6083,-3.617,-3.6253,-3.6302,-3.6383,-3.6384,-3.6395,-3.6335,-3.6335,-3.6336,-3.6336,-3.6336,-3.6337,-3.528,-3.5382,-3.551,-3.5691,-3.5794,-3.594,-3.6121,-3.6226,-3.6363,-3.6413,-3.6415,-3.6465,-3.6306,-3.6264,-3.6343,-3.6342,-3.6341,-3.634,-3.634,-3.5445,-3.5423,-3.5619,-3.5722,-3.5944,-3.6093,-3.6203,-3.6408,-3.6507,-3.6586,-3.6628,-3.6496,-3.6519,-3.651,-3.6477,-3.6606,-3.6606,-3.6606,-3.6606,-3.55,-3.5521,-3.5744,-3.5903,-3.6069,-3.619,-3.6412,-3.6557,-3.6702,-3.677,-3.6765,-3.6727,-3.6714,-3.6745,-3.6732,-3.6701,-3.6885,-3.6885,-3.6885,-3.5608,-3.565,-3.582,-3.5963,-3.6144,-3.6298,-3.6511,-3.6693,-3.6854,-3.6899,-3.6826,-3.6814,-3.6755,-3.673,-3.677,-3.6747,-3.6693,0,0]},{"header":{"parameterUnit":"m.s-1","parameterCategory":1,"la1":30.2992,"la2":30.254,"lo1":-89.0895,"lo2":-89.0443,"dy":0.0025,"dx":0.0025,"nx":19,"ny":19,"refTime":"2026-05-13T09:00:00:Z","depth":0,"parameterNumber":3,"parameterNumberName":"V-component_of_WINDS"},"data":[0,0,0,-1.0825,-1.0833,-1.1215,-1.1217,-1.1665,-1.1669,0,0,0,0,0,0,0,0,0,0,0,-1.0682,-1.0684,-1.0825,-1.0833,-1.1215,-1.1217,-1.1664,-1.1669,0,0,0,0,0,0,0,0,0,0,0,-1.0681,-1.0683,-1.0686,-1.0835,-1.1214,-1.1217,-1.1663,-1.1391,0,0,0,0,0,0,0,0,0,0,-1.1028,-1.0864,-1.0683,-1.0686,-1.0837,-1.1214,-1.1217,-1.1379,-1.1408,-1.1473,0,-1.1517,0,-1.1599,-1.1695,-1.1697,0,0,0,-1.0858,-1.0839,-1.0969,-1.0686,-1.084,-1.1213,-1.105,-1.1396,-1.1429,-1.1511,-1.1524,-1.1542,-1.1607,-1.1698,-1.17,-1.1982,-1.1982,0,0,-1.0836,-1.0736,-1.0946,-1.0989,-1.0921,-1.1037,-1.1061,-1.1416,-1.1426,-1.1526,-1.1553,-1.1614,-1.1701,-1.1704,-1.1982,-1.1982,0,0,0,-1.076,-1.072,-1.0842,-1.0969,-1.1041,-1.1048,-1.1075,-1.141,-1.1458,-1.1559,-1.1619,-1.1703,-1.1708,-1.1982,-1.1982,-1.1891,0,0,0,-1.0748,-1.0675,-1.0832,-1.0774,-1.1033,-1.1229,-1.106,-1.1433,-1.1477,-1.1617,-1.1703,-1.1712,-1.1982,-1.1982,-1.1894,-1.1866,0,0,0,-1.0668,-1.0666,-1.071,-1.0768,-1.0928,-1.1225,-1.1295,-1.1445,-1.1513,-1.1697,-1.1713,-1.1982,-1.1982,-1.1896,-1.187,-1.1912,0,0,0,-1.0554,-1.0626,-1.0707,-1.0813,-1.0923,-1.1164,-1.1294,-1.148,-1.1627,-1.1705,-1.1982,-1.1982,-1.1896,-1.1872,-1.1913,-1.1928,-1.1924,0,0,-1.0589,-1.0627,-1.0697,-1.0781,-1.098,-1.1115,-1.1306,-1.1538,-1.1651,-1.1867,-1.1875,-1.1893,-1.187,-1.1912,-1.1939,-1.1935,0,0,0,-1.0674,-1.0723,-1.0799,-1.0932,-1.1108,-1.126,-1.1474,-1.1561,-1.1749,-1.1739,-1.1923,-1.1912,-1.1941,-1.1953,-1.195,-1.1982,-1.1983,-1.1983,-1.1983,-1.058,-1.0717,-1.0843,-1.1026,-1.1155,-1.1375,-1.1494,-1.165,-1.1753,-1.1794,-1.1859,-1.1858,-1.1868,-1.1866,-1.1898,-1.1878,-1.1878,-1.1878,-1.1877,-1.0645,-1.0737,-1.0871,-1.1041,-1.1188,-1.1335,-1.1552,-1.162,-1.1782,-1.182,-1.1853,-1.1882,-1.1858,-1.1893,-1.1872,-1.1873,-1.1874,-1.1874,-1.1874,-1.0598,-1.0666,-1.0768,-1.0977,-1.1124,-1.131,-1.1458,-1.1588,-1.1712,-1.1744,-1.1828,-1.183,-1.185,-1.1775,-1.1775,-1.1775,-1.1775,-1.1775,-1.1775,-1.0509,-1.0628,-1.0734,-1.0928,-1.1032,-1.1187,-1.1411,-1.1519,-1.1673,-1.1757,-1.1758,-1.1858,-1.1829,-1.1819,-1.1776,-1.1775,-1.1775,-1.1775,-1.1775,-1.0524,-1.0542,-1.0705,-1.0808,-1.1051,-1.1189,-1.1353,-1.1563,-1.1672,-1.1742,-1.1837,-1.1793,-1.1842,-1.1846,-1.1839,-1.1804,-1.1804,-1.1804,-1.1804,-1.0485,-1.0522,-1.0719,-1.0877,-1.1048,-1.1213,-1.14,-1.1577,-1.1763,-1.1841,-1.1865,-1.1867,-1.1864,-1.1916,-1.1918,-1.1914,-1.1899,-1.1899,-1.1899,-1.0503,-1.0563,-1.0693,-1.0871,-1.107,-1.1241,-1.1421,-1.1603,-1.1819,-1.1906,-1.1905,-1.1901,-1.1905,-1.1899,-1.1983,-1.1984,-1.1978,0,0]}]]